DMSP 5D-2 F13 DEB, 42323

Orbit data source: Space-Track

DMSP 5D-2 F13 DEB, 42323 is space debris in SSO originally from a launch on Fri, 24 Mar 1995 UTC launched from the Air Force Western Test Range (AFWTR). Debris objects in space refer to the collection of defunct objects orbiting the Earth. Examples of debris include non-operational satellites, rocket bodies, and fragments generated from explosions, collisions, or faulty payload assembly.

Loading next visibility...
Identifier
42323, 1995-015JR
Orbit
SSO
Country
Flag of USUS
Related business
Manufacturer
Unknown
Mission
Spacecraft
Bus & Motor
Unknown
Mass
Unknown
Launch date (UTC)
1995-03-24 (31 years ago)
Launch vehicle
Unknown
Launch site
Air Force Western Test Range (AFWTR)
Object type
Payload
Rocket body
Debris
Shape & HBR
Unknown shape, 0.1 m
Radar Cross Section
Small (<0.1 m²)

Expand to show TLE details & history
Last TLE update: 3 days ago

TLE from 3 days ago
0 DMSP 5D-2 F13 DEB
1 42323U 95015JR  25284.96581458  .00000569  00000-0  30297-3 0  9995
2 42323  98.8344 297.1718 0003220  33.6035 326.5344 14.17365301517522
Epoch: 2025-10-11T23:10Z
TLE epoch observation values (Epoch: 2025-10-11T23:10:46.379Z)
Latitude
0.00003°
Longitude
-71.31118°
Altitude
835.246 km
Speed
7.436 km/s
True Right ascension
19h 48m 41s
True Declination
0° 00' 00"
Sunlit
Object was in daylight at epoch
Visualization orbit readout
Latitude
Unknown
Longitude
Unknown
Altitude
Unknown
Speed
Unknown
Apparent Right ascension
Unknown
Apparent Declination
Unknown
Sunlit
N/A
Visualization observer readout
Local Sidereal Time
05:45:34
Azimuth
Unknown
Elevation
Unknown
Doppler factor
Unknown
Orbital elements
Apogee altitude
833.767 km
Perigee altitude
829.124 km
Semi-major axis
7,209.582 km
Eccentricity
0.00032
Inclination
98.8344°
RAAN
297.1718°
Arg. of periapsis
33.6035°
True anomaly
326.51405°
Mean anomaly
326.5344°
Eccentric anomaly
326.52422°
Mean motion
3.5455 °/min
Orbital period
101.54 mins
BSTAR
0.00030297

Documentation

Showing up to 5 results
|